Location: Carrer del Canonge
(41.4901°N, 2.2931°E)
Time: 14:15:29
(UTC+00:00)

USA 238 - Pass Details

Date: 18 September 2020
Orbit: 1006 x 1206 km, 63.4° (Epoch: 28 October)

Event Time Altitude Azimuth Distance (km) Brightness Sun altitude
Rises 19:33:03 0° 327° (NNW) 3,946 7.5 -18.9°
Reaches altitude 10° 19:35:47 10° 332° (NNW) 3,014 6.7 -19.4°
Maximum altitude 19:42:50 53° 48° (NE) 1,412 4.1 -20.6°
Enters shadow 19:45:45 35° 104° (ESE) 1,807 4.3 -21.1°
